TimeEST,TemperatureF,Dew PointF,Humidity,Sea Level PressureIn,VisibilityMPH,Wind Direction,Wind SpeedMPH,Gust SpeedMPH,PrecipitationIn,Events,Conditions,WindDirDegrees,DateUTC
12:54 AM,6.1,-8.0,53,30.22,10.0,ENE,5.8,-,N/A,,Clear,70,2013-01-18 05:54:00
1:54 AM,3.9,-9.0,55,30.21,10.0,NE,5.8,-,N/A,,Clear,50,2013-01-18 06:54:00
2:54 AM,3.0,-9.9,55,30.23,10.0,ENE,5.8,-,N/A,,Clear,60,2013-01-18 07:54:00
3:54 AM,1.9,-11.0,55,30.25,10.0,Calm,Calm,-,N/A,,Clear,0,2013-01-18 08:54:00
4:54 AM,1.0,-9.9,60,30.28,10.0,North,4.6,-,N/A,,Clear,10,2013-01-18 09:54:00
5:54 AM,1.0,-9.0,63,30.31,10.0,Calm,Calm,-,N/A,,Clear,0,2013-01-18 10:54:00
6:54 AM,-0.0,-9.0,66,30.32,10.0,East,4.6,-,N/A,,Clear,80,2013-01-18 11:54:00
7:54 AM,-0.0,-6.0,76,30.36,10.0,Calm,Calm,-,N/A,,Partly Cloudy,0,2013-01-18 12:54:00
8:54 AM,3.9,-7.1,60,30.38,10.0,Calm,Calm,-,N/A,,Clear,0,2013-01-18 13:54:00
9:54 AM,8.1,-7.1,50,30.39,10.0,Calm,Calm,-,N/A,,Clear,0,2013-01-18 14:54:00
10:54 AM,10.9,-4.0,51,30.38,10.0,Calm,Calm,-,N/A,,Clear,0,2013-01-18 15:54:00
11:54 AM,16.0,-6.0,38,30.35,10.0,West,10.4,19.6,N/A,,Partly Cloudy,280,2013-01-18 16:54:00
12:54 PM,18.0,-5.1,36,30.34,10.0,WNW,11.5,-,N/A,,Partly Cloudy,300,2013-01-18 17:54:00
1:54 PM,19.0,-5.1,34,30.37,10.0,WNW,12.7,20.7,N/A,,Partly Cloudy,300,2013-01-18 18:54:00
2:54 PM,19.9,-4.0,35,30.35,10.0,WNW,8.1,-,N/A,,Clear,300,2013-01-18 19:54:00
3:54 PM,19.0,-4.0,36,30.35,10.0,WNW,5.8,-,N/A,,Clear,300,2013-01-18 20:54:00
4:54 PM,17.1,-5.1,37,30.35,10.0,Calm,Calm,-,N/A,,Clear,0,2013-01-18 21:54:00
5:54 PM,16.0,-2.9,43,30.35,10.0,SSE,4.6,-,N/A,,Clear,160,2013-01-18 22:54:00
6:54 PM,14.0,-2.9,47,30.33,10.0,SSE,4.6,-,N/A,,Clear,150,2013-01-18 23:54:00
7:54 PM,16.0,-2.9,43,30.33,10.0,South,4.6,-,N/A,,Overcast,170,2013-01-19 00:54:00
8:54 PM,18.0,-2.0,41,30.30,10.0,South,10.4,-,N/A,,Mostly Cloudy,170,2013-01-19 01:54:00
9:54 PM,18.0,3.0,52,30.29,10.0,South,10.4,-,N/A,,Clear,180,2013-01-19 02:54:00
10:54 PM,19.9,6.1,55,30.25,10.0,South,15.0,23.0,N/A,,Overcast,190,2013-01-19 03:54:00
11:54 PM,19.9,7.0,57,30.23,10.0,South,16.1,21.9,N/A,,Overcast,180,2013-01-19 04:54:00